Weather History for St. Augustine, FL

Change the Weather History Date:

Monday, January 11, 2010

  Actual Average Record
Temperature  
Mean Temperature 38 °F -  
Max Temperature 51 °F 62 °F 82 °F (2014)
Min Temperature 26 °F 44 °F 22 °F (1982)
Degree Days  
Heating Degree Days 26    
Moisture  
Dew Point 19 °F    
Average Humidity 52    
Maximum Humidity 78    
Minimum Humidity 24    
Precipitation  
Precipitation 0.00 in - - ()
Sea Level Pressure  
Sea Level Pressure 30.41 in    
Wind  
Wind Speed 6 mph (West)    
Max Wind Speed 10 mph    
Max Gust Speed -    
Visibility 10 miles    
Events      
Averages and records for this station are not official NWS values.
T = Trace of Precipitation, MM = Missing Value Source: NWS Daily Summary

Daily Weather History Graph

Daily Weather History Graph

Search for Another Location

Airport:

Trip Planner

Search our weather history database for the weather conditions in past years. The results will help you decide how hot, cold, wet, or windy it might be!

Date:

Astronomy

Jan. 11, 2010 Rise Set
Actual Time 7:22 AM EST 5:44 PM EST
Civil Twilight 6:56 AM EST 6:10 PM EST
Nautical Twilight 6:26 AM EST 6:40 PM EST
Astronomical Twilight 5:57 AM EST 7:09 PM EST
Moon 4:28 AM EST (1/11) 2:41 PM EST (1/11)
Length of Visible Light 11h 14m
Length of Day
10h 22m
Waning Crescent, 12% of the Moon is Illuminated
Jan 11
Waning Crescent
Jan 15
New
Jan 23
First Quarter
Jan 30
Full
Feb 5
Last Quarter

Hourly Weather History & Observations

Time (EST) Temp. Windchill Dew Point Humidity Pressure Visibility Wind Dir Wind Speed Gust Speed Precip Events Conditions
12:58 AM 30.0 °F 23.2 °F 19.9 °F 66% 30.46 in 10.0 mi NW 6.9 mph - N/A   Clear
1:58 AM 28.9 °F 23.9 °F 19.9 °F 69% 30.46 in 10.0 mi NW 4.6 mph - N/A   Clear
2:58 AM 28.0 °F 22.8 °F 19.9 °F 72% 30.45 in 10.0 mi NW 4.6 mph - N/A   Clear
3:58 AM 28.0 °F 22.8 °F 19.0 °F 69% 30.45 in 10.0 mi WNW 4.6 mph - N/A   Clear
4:58 AM 26.1 °F 19.4 °F 19.0 °F 75% 30.45 in 10.0 mi WNW 5.8 mph - N/A   Clear
5:58 AM 27.0 °F 21.6 °F 19.0 °F 72% 30.45 in 10.0 mi WNW 4.6 mph - N/A   Clear
6:58 AM 26.1 °F 19.4 °F 19.0 °F 75% 30.46 in 10.0 mi West 5.8 mph - N/A   Clear
7:58 AM 27.0 °F 19.5 °F 21.0 °F 78% 30.46 in 10.0 mi WNW 6.9 mph - N/A   Clear
8:58 AM 32.0 °F 27.5 °F 21.0 °F 64% 30.48 in 10.0 mi WNW 4.6 mph - N/A   Clear
9:58 AM 37.9 °F 33.5 °F 19.0 °F 47% 30.50 in 10.0 mi WNW 5.8 mph - N/A   Clear
10:58 AM 41.0 °F 38.0 °F 16.0 °F 36% 30.48 in 10.0 mi Variable 4.6 mph - N/A   Clear
11:58 AM 45.0 °F 39.7 °F 16.0 °F 31% 30.45 in 10.0 mi WNW 10.4 mph - N/A   Clear
12:58 PM 46.0 °F 42.5 °F 15.1 °F 29% 30.41 in 10.0 mi West 6.9 mph - N/A   Clear
1:58 PM 48.9 °F - 15.1 °F 26% 30.37 in 10.0 mi West 8.1 mph - N/A   Clear
2:58 PM 50.0 °F - 15.1 °F 25% 30.34 in 10.0 mi WSW 6.9 mph - N/A   Clear
3:58 PM 51.1 °F - 15.1 °F 24% 30.34 in 10.0 mi WSW 8.1 mph - N/A   Clear
4:58 PM 50.0 °F - 16.0 °F 26% 30.34 in 9.0 mi Variable 5.8 mph - N/A   Clear
5:58 PM 46.9 °F - 17.1 °F 30% 30.34 in 10.0 mi WSW 4.6 mph - N/A   Clear
6:58 PM 41.0 °F - 21.0 °F 45% 30.35 in 10.0 mi Calm Calm - N/A   Clear
7:58 PM 37.9 °F 34.4 °F 21.9 °F 53% 30.36 in 10.0 mi WSW 4.6 mph - N/A   Clear
8:58 PM 36.0 °F 32.1 °F 21.9 °F 57% 30.36 in 10.0 mi WSW 4.6 mph - N/A   Clear
9:58 PM 35.1 °F 31.0 °F 19.9 °F 54% 30.37 in 10.0 mi WSW 4.6 mph - N/A   Clear
10:58 PM 35.1 °F 29.3 °F 19.9 °F 54% 30.36 in 10.0 mi West 6.9 mph - N/A   Clear
11:58 PM 32.0 °F 25.6 °F 21.0 °F 64% 30.36 in 10.0 mi West 6.9 mph - N/A   Clear